Tracking 19245 objects as of 21-Aug-2018
HD Live streaming from Space Station
objects crossing your sky now

COSMOS 883

Track COSMOS 883 now!
10-day predictions
COSMOS 883 is classified as:


NORAD ID: 9610
Int'l Code: 1976-122A
Perigee: 960.4 km
Apogee: 1,010.1 km
Inclination: 83.0 °
Period: 104.7 minutes
Semi major axis: 7356 km
RCS: 1.9565 m2 (large)
Launch date: December 15, 1976
Source: Commonwealth of Independent States (former USSR) (CIS)
Launch site: PLESETSK MISSILE AND SPACE COMPLEX (PKMTR)
aabbcc
Your satellite tracking list
Your tracking list is empty




NASA's NSSDC Master Catalog

Two Line Element Set (TLE):
1  9610U 76122A   18232.51461427 +.00000074 +00000-0 +60805-4 0  9994
2  9610 082.9524 222.7172 0033810 284.3256 191.2340 13.75993476091921
Source of the keplerian elements: AFSPC